{"data":{"norad_id":65224,"intl_designator":"2025-176AC","name":"STARLINK-34975","alt_names":[],"object_type":"PAYLOAD","status":"ACTIVE","operator":null,"country":"US","launch_date":"2025-08-14","launch_site_code":"AFETR","launch_vehicle":null,"mission":null,"orbit_class":"UNKNOWN","rcs_meters":null,"size_class":null,"mass_kg":null,"dimensions":null,"purposes":["comms"],"wikipedia_slug":null,"has_3d_model":false,"image_url":null,"decayed_at":null,"tle_current":{"epoch":"2026-09-19T10:54:08.825184Z","epoch_age_seconds":208361,"freshness":"STALE","line1":"1 65224U 25176AC  26262.45426881  .00016941  00000+0  51134-3 0  9993","line2":"2 65224  53.1613 328.6684 0001290  84.7139 275.4011 15.34402295 62846","mean_motion":15.34402295,"eccentricity":0.000129,"inclination_deg":53.1613,"raan_deg":328.6684,"arg_perigee_deg":84.7139,"mean_anomaly_deg":275.4011,"bstar":0.00051134,"rev_number":6284,"period_min":93.84761771358,"perigee_km":461.81395148091,"apogee_km":463.57888650301,"semimajor_km":6840.833418992,"source":"CELESTRAK","updated_at":"2026-09-21T09:00:35.538994Z"}}}